Theta_e
347 356 362 362 360 360 358 357 357 358 359 360 359 358 358 357 353 352 350 350 349 347 343 342 342 342 341 342 343 344 343 342 340 340 342 344 336 350 352 353 355 350 352
350 356 360 359 361 356 356 357 355 358 358 358 357 356 354 353 350 349 348 348 347 343 342 341 341 341 341 341 341 342 344 339 338 339 346 347 343 348 354 356 354 354 355
351 355 355 359 360 357 356 354 355 358 358 357 353 353 350 348 345 345 347 346 345 342 341 341 341 340 339 338 339 342 337 337 335 335 335 336 338 353 355 355 354 353 354
351 352 353 361 360 357 356 356 358 359 357 355 353 349 346 346 346 344 346 345 344 340 340 341 341 340 338 337 338 339 336 333 333 332 322 336 353 355 354 352 351 352 352
349 352 355 361 360 357 356 357 358 359 356 354 350 346 345 345 345 346 345 345 343 340 340 340 340 338 336 336 338 338 336 331 330 323 326 345 347 350 351 349 347 347 346
348 350 356 359 358 356 355 354 357 356 354 352 348 345 344 343 344 345 345 344 342 339 338 339 338 335 335 335 335 337 336 331 323 318 331 339 339 341 340 339 337 337 336
346 350 351 358 358 357 355 356 357 355 353 350 348 344 343 343 343 345 344 343 341 337 337 338 336 335 336 334 334 334 333 331 316 315 325 331 335 339 335 334 334 334 333
347 348 351 357 358 357 357 357 355 354 351 349 347 346 343 343 342 342 343 341 337 336 337 337 335 334 336 334 333 332 331 330 315 315 317 324 332 334 329 329 329 329 330
348 347 348 350 352 356 357 356 353 352 350 348 347 346 345 341 341 341 341 339 336 337 338 336 333 333 333 333 331 330 328 326 313 314 315 318 327 331 329 328 328 327 327
346 347 345 346 348 350 351 354 352 350 348 348 346 344 344 341 339 338 339 339 334 336 337 334 334 332 330 329 328 328 325 322 313 314 315 316 328 328 332 334 330 330 329
339 340 340 342 342 342 345 348 350 347 344 344 343 343 342 333 334 331 333 335 335 335 335 334 331 329 325 324 325 324 321 314 313 314 314 323 328 330 331 331 331 333 332
332 335 337 336 339 341 342 337 337 335 335 336 336 338 334 331 331 333 334 336 336 333 333 330 328 325 320 316 315 317 313 312 313 313 314 323 326 328 329 330 330 330 332
332 334 334 334 336 336 332 329 327 327 329 329 330 332 329 326 327 325 323 321 322 325 319 319 318 317 316 315 314 312 312 312 312 312 314 322 325 327 328 332 334 332 331
333 331 328 327 326 324 325 323 323 324 325 324 326 328 325 322 322 321 320 320 320 320 318 318 316 316 314 314 312 311 311 311 312 312 313 321 324 328 330 329 329 330 330
325 326 325 325 323 323 322 322 323 323 322 323 324 324 323 322 321 322 322 322 321 321 319 318 316 315 313 312 312 311 311 311 312 311 312 319 324 328 326 324 326 326 327
325 326 325 323 323 323 322 322 321 320 321 322 322 322 322 323 322 323 322 322 321 320 319 317 315 314 312 310 311 311 311 311 311 311 312 313 322 326 325 325 324 325 326
325 325 325 324 323 323 322 322 323 324 325 324 324 324 325 323 322 322 320 318 320 318 317 317 316 314 311 310 310 311 311 311 311 311 312 314 316 320 324 323 324 323 325
322 321 324 324 324 323 322 324 325 326 326 326 326 326 326 325 324 321 319 320 318 318 316 315 313 311 309 309 309 310 310 311 310 311 312 313 315 314 318 325 325 325 325
322 321 322 324 323 324 324 325 326 326 325 325 326 325 325 326 326 322 320 321 318 315 314 314 311 310 308 309 309 310 309 310 309 310 310 312 314 316 317 321 323 325 325
318 318 318 318 319 322 324 324 324 324 324 325 323 323 323 324 325 322 319 319 316 313 312 311 309 309 308 307 307 307 307 308 308 308 309 310 312 315 318 318 318 319 323
316 315 315 315 317 317 318 318 319 317 320 321 321 320 321 321 322 322 320 319 317 313 311 311 309 308 307 307 305 306 306 307 307 308 308 308 310 314 317 318 318 317 317
313 313 313 313 316 316 317 317 317 316 319 319 321 318 320 320 318 319 320 319 318 314 310 309 308 308 307 307 305 301 300 303 305 307 307 307 308 312 315 316 316 315 315
314 315 315 314 315 315 316 316 315 315 316 315 315 317 318 317 315 315 317 318 318 313 310 309 308 308 307 307 306 304 298 297 300 304 306 306 307 310 313 315 314 314 313
313 314 313 314 314 313 312 308 306 306 307 310 310 312 308 311 311 314 313 314 315 313 310 309 311 310 308 305 306 306 305 304 300 299 304 305 306 309 313 313 313 312 311
311 310 310 309 308 307 306 305 304 304 305 307 306 305 305 307 309 312 312 313 313 311 310 310 310 309 308 306 305 305 304 303 302 301 298 301 304 306 310 312 313 311 309
308 308 308 306 306 305 303 303 303 303 302 302 303 305 306 306 307 309 310 311 311 312 313 312 309 308 308 307 306 305 304 304 302 301 298 299 300 304 307 310 310 308 308
Wind_Speed
1 4 13 15 15 16 17 18 18 18 16 16 16 17 16 16 16 16 16 15 15 16 18 18 19 18 19 19 18 17 17 16 15 13 11 8 2 7 7 5 9 6 6
4 5 12 13 15 15 16 17 18 17 17 17 17 17 17 16 16 14 14 15 15 18 19 19 18 19 19 19 18 18 18 18 18 16 15 11 2 9 9 9 10 7 7
6 6 9 13 16 16 17 17 18 16 17 17 18 18 17 16 16 15 14 14 15 17 18 18 18 18 19 19 18 18 19 19 20 18 16 10 6 9 8 7 7 6 6
11 6 9 16 17 16 16 17 16 16 18 18 17 18 17 16 15 15 14 14 15 17 17 17 17 18 18 19 18 18 18 20 20 18 9 9 9 7 6 6 4 6 6
8 7 10 17 19 20 19 18 17 18 18 18 17 16 16 16 14 13 13 14 15 16 16 16 16 17 18 18 18 17 18 19 19 14 9 8 7 10 12 11 10 10 10
7 5 10 14 15 12 14 15 14 15 15 16 17 16 15 13 12 12 13 14 15 16 15 15 16 16 17 17 17 17 17 18 15 10 8 8 6 9 9 9 8 8 8
5 6 8 13 13 13 14 14 17 16 14 14 16 16 14 12 9 10 11 13 13 13 13 13 14 14 14 15 16 17 17 17 8 7 7 7 5 6 6 6 6 7 6
7 5 7 14 15 12 12 14 14 14 14 13 12 13 13 11 10 10 10 12 12 11 11 11 12 13 12 13 14 14 14 15 9 6 6 5 9 5 2 2 2 3 4
4 6 4 5 8 11 11 13 13 12 10 10 9 8 9 9 8 8 9 9 10 10 9 9 10 11 11 12 13 13 13 14 7 5 6 4 10 10 3 3 3 2 2
5 5 6 5 6 5 6 11 12 11 10 8 9 9 8 8 7 7 6 6 6 7 7 8 10 10 11 12 12 14 14 11 6 6 5 6 11 10 12 12 7 7 6
6 7 5 5 4 6 1 4 8 9 10 8 7 7 6 3 4 5 3 3 6 9 8 10 10 11 11 12 13 13 9 4 4 4 4 12 13 12 9 8 10 9 10
6 7 6 7 1 7 8 7 6 4 4 4 3 3 2 3 1 1 3 2 8 10 10 11 10 10 9 5 5 8 3 6 4 5 4 13 11 12 10 10 11 11 13
7 7 8 5 8 10 7 4 3 3 3 3 2 2 2 3 2 3 2 3 3 9 4 5 4 4 6 5 5 5 6 5 3 4 7 12 11 10 10 6 11 8 11
11 10 9 8 6 7 3 3 3 3 2 3 3 2 2 2 3 4 3 3 3 2 4 3 2 4 4 4 4 5 5 5 4 5 6 13 11 11 10 6 9 10 9
13 12 11 12 10 7 7 4 4 4 4 4 4 4 2 3 3 3 3 2 2 2 2 2 1 3 3 4 4 4 5 6 7 4 3 10 11 9 2 3 7 9 10
13 13 12 14 10 7 8 7 4 4 4 4 3 3 4 3 3 3 2 1 1 2 2 2 2 2 2 3 5 5 5 5 6 7 4 5 10 8 9 9 8 8 10
8 8 10 8 9 10 8 6 4 4 4 5 5 6 6 5 3 3 2 1 0 1 1 2 3 4 4 4 5 5 5 6 6 7 6 5 5 9 8 7 7 5 8
8 9 9 7 9 7 6 5 4 4 4 5 5 4 5 5 4 2 2 3 3 1 1 2 2 2 1 2 4 5 5 4 6 7 6 6 5 4 7 7 7 7 7
10 9 10 11 8 6 6 5 5 6 5 4 5 5 6 6 5 4 4 3 3 2 2 1 1 0 2 3 5 4 4 3 6 6 8 8 7 6 4 7 9 9 8
10 10 12 9 10 8 4 4 5 5 5 4 4 4 7 6 5 6 2 1 3 1 1 1 1 2 2 2 4 4 3 2 4 5 6 5 5 6 4 4 4 6 10
9 10 9 8 7 7 5 4 2 3 3 2 1 5 5 5 7 6 3 0 2 2 1 3 2 1 2 2 2 2 1 0 4 3 5 5 6 5 5 4 3 3 4
5 6 7 6 6 5 3 2 3 3 2 4 3 5 6 6 6 8 6 4 5 3 3 3 4 2 2 1 1 1 2 2 2 2 3 5 6 4 4 3 3 5 4
6 6 5 6 5 5 5 3 3 2 2 2 3 3 3 5 5 4 5 6 5 4 3 2 4 4 2 0 1 1 1 2 3 2 3 4 6 3 4 3 4 5 5
4 4 5 5 7 5 5 5 5 3 3 3 3 3 5 5 5 4 3 4 3 2 2 4 4 2 2 2 2 1 1 1 1 3 2 3 5 3 3 3 4 4 6
5 5 5 6 7 7 7 6 4 4 2 3 3 6 5 5 5 5 4 4 2 2 2 3 3 3 3 2 3 1 1 1 2 2 3 4 4 3 4 2 2 3 5
7 6 6 7 6 6 5 6 6 5 6 5 5 4 3 3 4 4 6 4 3 2 2 1 2 4 4 4 3 3 2 2 2 2 2 2 4 4 3 3 1 2 4
Wind_Direction
142 120 124 120 113 110 107 105 106 101 95 95 96 97 96 97 102 100 96 90 87 82 76 72 68 64 58 52 50 46 36 28 21 16 0 348 239 185 165 183 160 136 132
84 94 121 118 111 113 107 103 105 105 105 104 102 96 96 97 96 90 87 83 80 79 78 73 65 61 55 51 49 43 34 26 23 17 12 360 252 171 156 148 146 144 141
115 120 128 136 116 115 116 119 118 114 114 113 117 114 111 108 103 95 90 85 83 81 79 73 67 62 55 47 44 42 43 32 25 22 15 6 74 140 147 137 124 126 125
136 137 134 125 127 126 127 124 125 123 120 120 122 121 120 115 111 105 98 93 91 87 81 74 67 60 48 41 40 49 43 31 25 29 18 14 37 82 91 98 107 100 74
131 134 145 139 143 147 144 142 141 134 132 130 124 119 117 115 112 109 104 101 98 93 85 77 67 57 45 44 42 36 37 33 23 23 31 27 31 52 60 64 60 62 62
123 121 137 134 131 134 130 128 125 122 122 125 125 125 124 120 123 121 113 107 104 98 88 77 67 53 47 48 40 35 30 32 24 13 21 31 36 49 57 60 64 64 59
126 136 138 139 141 144 140 139 133 129 127 132 132 135 134 135 123 98 91 90 90 87 82 76 69 56 50 46 39 34 26 28 30 14 4 358 3 41 54 59 59 54 46
145 150 149 145 138 136 142 132 129 134 141 144 144 142 137 131 119 110 102 95 91 88 87 79 74 57 51 45 43 33 24 14 13 359 348 345 324 331 36 51 53 41 11
95 89 82 94 128 141 136 133 135 138 145 143 140 132 130 124 114 104 99 102 98 91 87 89 76 59 53 51 32 20 11 358 359 336 327 323 315 309 290 232 231 254 272
85 67 60 58 87 73 118 143 150 155 154 154 149 140 126 119 116 112 86 101 92 81 87 86 66 64 57 36 20 8 2 8 358 351 337 316 304 292 280 286 238 255 241
69 52 48 43 61 67 34 148 157 170 165 156 145 140 97 101 75 78 83 109 109 92 85 80 70 57 43 22 11 4 9 355 345 344 332 323 324 314 314 291 283 278 262
62 38 6 359 305 86 29 20 22 14 30 41 44 70 88 80 26 173 17 163 147 87 79 70 58 48 31 14 2 4 354 341 338 336 320 319 316 307 306 307 290 275 277
54 45 10 354 26 63 29 11 27 2 12 28 63 76 34 38 65 82 74 63 62 77 63 54 42 43 18 11 1 352 338 337 328 321 318 317 313 302 300 347 10 311 260
50 41 7 8 56 62 73 60 50 36 15 12 15 43 60 37 59 91 97 103 90 112 109 86 28 18 19 4 350 345 335 330 321 315 315 314 315 306 277 305 3 7 31
46 38 24 41 24 44 55 48 40 26 34 42 41 48 80 85 81 85 104 107 108 99 103 89 6 20 360 8 355 344 326 332 326 326 314 315 321 327 303 19 11 356 355
49 34 32 35 41 40 68 54 60 65 51 43 35 51 67 96 113 118 95 77 114 101 65 62 14 12 359 3 337 336 330 333 338 346 345 332 344 349 23 22 360 356 348
57 55 45 48 29 37 22 40 45 43 55 46 33 26 26 8 6 59 37 325 275 126 28 17 20 7 355 351 334 329 331 342 356 359 359 2 16 18 19 20 11 4 355
67 49 47 45 43 23 33 22 29 29 36 44 29 349 9 348 8 344 91 280 227 224 122 51 35 328 331 338 320 319 333 353 8 9 11 14 21 27 15 23 14 17 2
45 42 48 42 26 24 6 24 21 24 30 24 32 3 349 343 323 266 247 259 219 313 24 54 75 211 308 341 329 332 344 9 18 19 19 20 25 30 24 13 22 26 22
40 50 49 42 26 22 23 20 15 12 1 13 21 358 332 341 349 282 315 283 356 262 268 201 261 347 310 330 325 332 337 332 19 33 15 14 17 23 26 24 22 14 24
38 48 45 44 22 31 4 353 14 356 337 321 335 341 340 339 346 318 261 63 208 226 326 323 11 294 303 342 308 326 357 327 19 28 21 13 11 11 27 32 31 25 16
45 40 32 20 30 29 19 332 324 329 335 323 321 334 324 320 335 316 286 266 216 189 225 185 215 186 253 225 208 146 20 313 313 4 357 12 6 353 17 30 29 28 13
36 27 17 350 10 4 351 319 302 312 321 285 317 324 307 309 314 314 307 273 217 166 179 215 217 185 226 223 209 131 141 243 323 336 341 342 350 344 338 343 19 15 11
4 357 338 342 355 348 346 356 357 317 320 313 307 295 308 320 320 341 327 341 65 170 195 212 211 201 165 235 301 198 161 171 137 334 320 311 328 312 331 345 347 1 9
341 336 341 342 344 352 357 358 345 331 278 295 315 321 321 320 329 331 347 22 25 225 210 246 260 206 196 193 212 237 208 167 143 156 272 317 326 279 258 272 323 345 8
336 337 340 341 337 342 341 339 339 322 321 332 328 319 319 307 307 321 336 338 355 254 233 236 237 261 247 231 210 207 222 206 174 163 205 262 282 292 287 261 298 342 2